RH
100 99 42 23 28 22 24 38 49 46 41 42 35 29 24 19 15 14 14 14 14 13 15 15 14 14 14 14 14 15 15 15 15 16 17 18 18 20 21 21 20 21 25 36 37 51 59 60 57 56 57 64 60 60
100 100 68 23 23 25 24 30 37 44 43 39 39 37 31 24 19 17 15 14 14 13 13 13 15 15 15 15 15 15 15 16 16 17 17 17 18 19 21 20 22 25 30 36 41 58 73 75 71 65 73 71 65 59
100 100 97 47 20 18 22 28 29 30 36 41 40 37 35 31 25 20 16 14 13 12 13 13 13 14 15 15 15 17 16 16 16 17 17 18 20 21 22 22 23 34 35 29 43 82 88 80 80 69 72 66 60 59
100 100 100 78 50 31 21 20 21 24 24 26 35 42 39 35 29 26 22 20 16 16 15 16 16 17 18 18 18 18 18 18 18 18 18 19 22 23 23 22 22 46 33 48 48 76 80 81 79 78 70 63 62 62
100 100 100 100 89 72 89 67 28 23 19 18 19 28 40 43 38 32 28 24 21 19 16 17 17 18 18 18 19 19 18 18 19 20 21 25 26 27 25 24 25 43 55 79 81 84 84 80 84 79 66 65 66 65
100 100 100 100 100 100 100 100 98 60 35 24 20 19 21 32 44 44 39 33 30 24 20 18 18 18 19 20 19 20 22 22 23 25 27 29 30 26 25 24 29 57 90 93 94 91 91 84 76 71 75 74 68 65
100 100 100 100 100 99 91 92 100 91 55 46 29 26 20 20 26 37 38 45 47 43 36 31 26 26 26 26 27 28 29 30 32 31 31 32 26 26 34 45 71 92 94 96 92 91 85 79 75 73 73 72 68 62
100 100 100 100 97 89 91 96 88 100 100 100 65 35 29 26 25 26 28 39 49 45 42 35 29 34 40 37 37 37 37 39 38 37 35 30 36 52 52 78 96 90 90 92 90 84 77 73 70 72 75 71 63 58
100 100 100 97 95 87 77 88 93 100 100 99 80 89 79 36 28 29 33 36 40 38 30 22 28 35 40 45 47 49 48 45 39 34 34 46 50 56 87 98 95 89 85 79 74 76 75 80 80 80 76 69 62 52
71 90 100 100 100 98 93 88 95 100 100 100 100 100 93 90 91 88 53 41 36 35 25 20 28 33 39 47 49 52 49 42 33 30 42 44 49 73 100 100 99 94 78 78 81 79 85 89 88 82 73 64 50 41
29 46 59 96 100 100 100 100 98 100 100 100 100 96 82 91 100 100 98 66 61 79 72 51 36 41 42 46 59 67 58 61 67 58 74 68 71 96 96 94 86 84 90 91 90 84 89 94 87 77 63 50 40 16
14 16 23 51 77 96 100 100 100 100 100 100 100 99 100 100 100 100 99 83 74 72 56 50 60 66 56 67 92 99 100 99 89 80 80 68 76 91 87 86 87 89 94 99 95 96 97 89 78 66 53 37 12 8
6 6 9 18 46 69 84 93 100 100 100 100 100 100 100 100 100 100 94 72 65 63 66 79 90 89 96 97 100 100 100 100 85 80 78 79 88 89 86 92 97 100 100 95 92 92 86 80 67 52 32 10 10 11
13 9 6 6 12 35 55 38 72 92 99 100 100 100 100 100 100 100 90 78 78 84 88 94 94 92 99 100 100 100 100 100 97 85 88 100 97 100 100 100 100 100 100 95 91 86 78 65 48 20 11 12 13 14
10 11 12 9 6 6 12 16 14 23 41 81 100 100 100 100 100 100 100 100 97 93 88 88 94 100 100 100 100 100 100 99 93 100 100 100 100 100 100 100 100 98 89 84 80 71 56 26 12 13 15 15 16 17
10 10 12 12 12 9 6 6 9 11 11 24 75 100 100 100 100 100 100 100 100 100 100 100 100 100 100 100 100 100 100 100 100 100 100 100 100 100 100 98 94 88 88 81 63 38 20 15 14 16 16 18 17 18
10 12 13 13 12 11 9 8 7 8 10 13 19 61 100 100 100 100 100 100 100 100 100 100 100 100 100 100 100 100 100 100 100 100 100 100 100 99 95 95 96 87 66 47 27 19 17 18 18 18 16 17 18 20
15 14 14 13 12 10 9 10 10 12 12 14 22 75 100 100 100 100 100 100 100 100 100 100 100 100 100 100 100 100 100 100 100 100 99 100 100 98 97 86 64 42 30 24 22 22 22 21 21 19 18 19 20 24
9 10 9 9 9 9 10 12 14 20 32 23 30 46 77 99 100 100 100 100 100 100 100 100 100 100 98 97 100 100 100 100 100 98 98 97 95 84 68 50 38 29 25 25 26 26 23 21 19 19 20 21 27 38
8 9 11 12 19 30 35 57 62 59 55 76 81 73 73 80 89 100 100 100 98 98 100 100 100 95 94 96 99 97 96 94 89 84 73 64 57 45 35 32 28 26 26 27 26 23 23 22 22 22 23 31 45 49
12 13 29 64 85 75 51 57 89 98 96 90 86 86 98 100 99 96 92 88 86 82 83 82 81 80 79 76 71 66 57 51 44 40 39 36 36 36 31 29 31 32 27 24 25 25 25 25 28 29 43 58 65 67
48 100 100 100 94 82 86 96 100 100 100 100 100 100 99 92 84 80 78 73 67 55 49 40 40 40 39 39 38 38 38 37 38 36 31 27 31 36 35 32 29 26 26 26 27 28 30 38 39 48 65 72 74 77
100 100 100 100 100 100 100 96 92 94 90 93 94 94 89 85 66 53 48 37 29 27 24 22 21 24 27 31 33 33 30 29 30 33 39 42 39 35 34 34 33 32 30 31 38 40 42 50 54 65 72 78 86 91
100 100 100 98 63 74 82 91 96 100 100 96 86 68 63 55 44 38 30 25 22 20 22 26 30 32 33 34 37 40 44 49 49 46 41 41 40 38 40 36 36 38 39 41 48 45 45 57 62 69 71 78 88 94
100 100 100 100 100 91 48 40 66 88 90 83 75 70 47 39 33 29 26 27 26 31 35 36 38 39 43 52 59 64 60 51 48 42 41 47 42 34 37 43 47 51 52 56 60 55 45 56 70 72 75 85 88 91
100 100 95 93 100 100 96 100 100 91 72 59 49 45 42 39 36 34 33 35 34 37 39 40 44 50 57 57 55 51 49 47 43 36 33 36 40 39 34 32 35 42 48 61 71 67 53 62 73 84 93 93 94 91
99 100 100 100 100 100 98 85 66 52 45 44 49 51 45 39 33 29 31 35 39 41 46 50 51 50 50 49 48 45 38 35 39 40 34 29 28 26 23 23 30 43 50 50 59 69 62 68 91 99 100 99 94 84
100 100 100 96 86 60 47 44 44 45 50 50 48 43 38 33 33 38 38 40 46 54 56 53 45 40 38 39 37 38 42 42 36 30 28 29 23 20 17 17 40 63 61 58 74 76 71 79 100 100 100 98 94 87
69 60 54 54 54 57 60 60 56 52 48 44 42 43 43 44 44 47 52 54 54 54 52 51 46 44 44 51 51 44 39 34 30 29 28 26 22 21 20 25 46 58 62 89 96 92 93 99 100 100 100 100 100 94
59 53 48 52 58 61 64 62 61 56 52 53 52 51 50 49 56 59 60 61 60 55 50 48 51 56 54 48 42 40 38 33 29 26 26 26 24 24 26 35 44 50 60 91 100 100 100 100 100 100 100 100 100 97
76 80 80 75 67 59 56 56 58 61 64 68 68 64 59 58 57 57 54 50 47 46 50 57 58 55 48 43 41 38 33 29 26 25 24 24 25 26 28 36 47 54 58 74 100 100 100 100 100 100 100 100 100 94
68 61 59 60 66 73 71 72 71 69 67 65 62 57 47 45 44 44 54 57 59 60 59 53 46 42 40 38 34 30 27 25 24 24 24 23 23 23 24 28 40 57 70 94 100 100 100 100 100 100 100 100 100 89
64 63 58 52 46 45 45 45 42 42 45 47 47 49 50 53 56 58 58 56 52 48 46 45 42 38 34 30 27 25 24 22 20 19 18 18 19 20 22 24 27 37 60 98 100 100 100 100 100 100 100 100 100 93
Wind_Speed
44 47 44 45 47 46 45 41 38 36 35 34 34 34 33 33 32 33 34 35 35 36 35 33 31 29 28 27 27 26 27 26 28 29 29 30 32 32 33 35 36 38 40 42 46 43 42 39 37 38 39 42 47 50
44 41 42 40 45 45 44 42 40 38 35 35 34 33 33 34 34 34 35 36 36 35 35 35 34 33 31 31 30 30 30 31 32 33 34 35 35 35 36 37 39 37 41 45 48 41 40 42 43 44 45 48 52 57
37 37 47 39 39 43 44 41 39 38 36 36 34 34 33 34 36 36 36 36 37 36 37 37 36 35 34 33 33 33 34 35 36 37 38 38 38 37 40 40 41 36 44 47 48 38 42 42 42 46 48 53 56 58
39 37 40 44 40 39 38 39 41 39 37 36 36 36 34 34 35 36 37 37 37 38 38 38 38 37 37 37 37 37 37 38 38 39 40 41 40 42 42 42 43 40 46 47 48 39 41 44 46 50 53 58 60 63
50 45 39 43 45 46 41 39 39 39 39 38 37 38 38 36 35 35 36 36 38 39 40 39 39 39 39 39 40 40 40 39 40 41 41 42 44 43 46 47 40 41 45 46 45 45 44 49 51 54 58 60 63 66
50 46 43 40 41 43 44 42 44 43 40 40 39 39 38 39 39 38 37 38 38 38 39 39 39 39 40 40 41 41 40 39 42 43 43 45 44 46 49 47 41 47 44 45 45 48 50 53 55 57 59 62 67 70
52 49 46 44 42 42 40 40 40 41 42 40 38 39 41 40 41 42 42 39 39 40 40 41 41 40 40 39 40 42 42 42 44 46 46 44 44 47 49 47 46 46 45 47 49 50 52 55 58 60 63 67 69 70
49 51 51 49 46 43 41 42 42 42 38 38 40 39 40 43 42 42 44 42 42 43 44 47 46 43 40 42 45 45 45 45 46 47 46 44 47 49 52 45 44 44 46 49 51 53 57 60 62 65 68 69 70 71
45 47 53 55 50 46 45 43 44 44 43 40 40 40 41 41 41 43 44 43 43 45 46 48 46 45 44 43 44 45 46 47 48 49 47 48 51 54 46 44 45 45 49 52 55 58 62 63 65 67 68 69 69 69
48 48 46 54 56 53 48 46 46 45 43 44 43 42 43 45 44 44 46 45 45 44 46 46 45 46 46 44 44 46 47 48 50 51 52 54 56 47 42 47 48 52 55 56 59 62 63 64 66 66 66 66 67 69
45 51 49 45 50 55 53 50 48 46 43 44 44 43 40 41 46 49 50 48 43 40 43 43 46 45 45 46 48 51 51 51 51 53 55 56 50 44 48 52 55 56 58 60 63 64 66 65 64 65 65 67 69 70
46 46 46 50 49 47 53 56 54 51 49 47 46 45 46 48 47 47 49 48 46 45 42 41 41 45 48 50 53 53 52 53 55 54 52 52 51 52 56 58 60 61 62 64 67 67 65 65 65 65 66 68 70 71
33 42 47 49 49 49 45 47 57 57 54 48 43 46 49 53 53 55 56 53 49 47 44 42 42 46 47 50 49 45 50 53 52 52 54 54 54 59 62 64 66 66 66 67 66 65 65 64 64 65 67 69 69 69
24 27 35 46 51 50 48 46 46 49 49 49 48 47 53 55 54 55 54 52 52 50 52 53 53 52 52 49 50 50 50 53 57 59 59 59 61 63 66 68 65 65 65 65 66 63 62 62 64 66 67 67 67 65
24 26 28 29 35 47 53 52 49 51 51 52 53 53 55 55 58 58 60 59 56 54 53 55 55 55 54 54 57 58 59 61 61 62 63 63 64 65 63 64 64 64 65 63 60 61 62 64 64 63 64 64 64 62
25 27 29 30 30 29 35 47 56 57 53 54 56 56 53 55 54 54 57 59 59 61 60 59 57 60 60 59 59 61 63 64 64 65 65 64 62 61 59 59 60 60 59 59 61 62 63 64 64 62 60 61 60 59
30 31 32 32 33 33 32 33 39 51 58 56 52 54 55 50 50 50 51 52 54 55 56 58 58 57 58 61 63 63 61 61 61 61 60 56 53 55 57 56 56 58 58 61 62 62 62 61 60 59 58 58 57 55
36 36 36 35 35 35 36 37 37 38 45 53 54 51 50 50 46 46 46 46 46 47 47 47 50 50 51 52 52 52 52 51 49 48 49 50 52 54 55 54 56 57 59 60 59 58 57 57 57 57 57 55 53 51
40 39 37 37 36 35 35 36 36 37 39 41 46 51 53 51 46 43 42 41 41 43 46 50 53 50 49 48 46 43 44 46 48 49 51 52 53 54 56 56 57 57 57 56 55 55 56 55 55 55 54 52 49 47
39 39 37 36 34 33 32 33 34 34 32 31 33 36 39 41 42 40 38 36 36 38 39 40 42 44 44 44 44 45 46 47 49 49 51 53 55 55 54 55 56 56 55 55 54 54 53 52 52 51 49 46 43 42
36 36 34 31 27 27 27 27 23 25 26 28 30 29 28 29 29 30 32 32 32 32 34 36 38 40 40 41 43 45 47 49 50 51 51 52 52 52 52 53 54 53 53 52 51 50 51 50 48 45 40 38 36 36
35 35 33 28 27 26 28 33 31 28 20 24 28 28 28 29 29 28 27 27 28 31 32 33 36 39 41 44 46 46 48 49 49 49 50 50 50 51 52 52 52 53 53 52 53 52 48 45 42 38 35 34 34 34
34 35 29 25 25 23 25 27 31 31 31 30 29 24 22 19 18 19 21 25 30 32 35 36 37 38 40 41 42 43 44 44 45 46 47 48 49 51 52 54 55 56 55 54 53 48 43 39 37 36 36 36 37 36
36 34 32 30 25 26 21 18 19 20 18 18 18 18 18 20 23 25 27 31 35 36 38 38 38 39 40 42 43 43 44 44 44 45 47 50 53 54 57 59 59 58 58 54 50 46 41 37 35 36 37 37 36 35
40 38 36 37 37 24 19 22 22 24 26 24 24 23 23 26 27 30 33 35 36 37 39 41 41 41 41 41 41 42 43 45 47 50 52 56 59 61 61 61 60 58 56 52 49 46 42 36 36 36 36 36 36 38
31 35 36 34 36 36 30 30 23 18 19 21 22 26 29 31 31 33 35 39 40 39 38 38 38 37 38 40 43 45 47 50 53 54 55 57 58 60 62 63 62 58 54 51 48 45 41 37 37 36 37 38 39 41
26 25 23 27 26 25 22 18 17 19 22 26 29 31 31 32 33 36 37 38 37 39 40 41 42 44 45 46 47 49 51 51 51 51 52 54 56 60 62 69 65 56 49 47 45 43 40 38 37 37 39 40 41 43
27 26 25 21 17 17 19 21 23 26 28 29 30 33 36 37 39 39 38 39 40 41 41 42 42 44 45 47 48 46 46 47 49 51 51 53 54 55 57 53 41 36 37 38 39 39 38 37 37 39 41 42 43 44
20 20 20 20 21 23 25 27 28 29 31 35 39 41 40 39 38 38 38 38 38 40 43 45 47 49 47 46 46 46 48 49 50 49 50 50 50 50 45 37 29 30 32 34 35 36 37 38 40 41 43 45 46 47
19 21 23 25 28 30 32 33 34 37 38 39 39 40 39 39 37 38 40 42 44 46 47 47 46 46 46 46 47 49 49 50 50 49 49 49 48 46 41 36 34 34 35 35 35 37 38 40 43 44 45 46 47 49
24 25 27 30 32 34 34 35 36 37 37 37 38 40 40 42 43 44 43 43 44 45 46 46 47 47 47 47 48 49 51 51 51 51 50 49 47 46 43 40 38 39 39 39 39 40 40 42 44 46 47 48 50 52
31 32 33 33 33 34 36 37 38 39 39 41 42 43 43 43 44 44 43 43 44 45 46 46 46 47 48 49 50 52 53 52 52 53 53 53 52 49 46 44 42 41 41 40 39 40 42 43 46 49 50 50 53 54
26 27 28 29 31 33 35 37 38 40 40 40 40 40 41 42 41 41 42 43 44 45 45 47 48 49 51 52 53 54 55 55 56 55 54 53 52 51 51 49 48 46 44 42 42 44 47 50 52 53 53 53 54 51
Wind_Direction
202 199 194 197 197 199 200 203 206 206 208 207 207 206 207 210 211 211 211 212 212 211 214 216 219 221 225 230 235 241 247 253 258 263 268 273 277 279 284 288 291 294 300 308 316 317 309 307 307 309 312 310 310 312
200 205 188 196 199 200 202 203 207 208 208 210 210 210 210 210 212 212 212 213 214 216 218 220 223 227 231 236 241 247 254 256 262 267 270 274 277 281 284 286 288 293 300 308 312 313 301 303 306 308 313 309 313 314
202 205 197 196 199 201 203 204 205 209 211 213 213 214 214 215 215 216 217 218 220 220 223 225 228 232 236 241 246 249 255 260 263 267 271 274 277 280 282 285 288 297 302 307 307 304 295 298 303 305 308 310 312 312
198 205 208 200 201 201 204 208 211 213 215 216 218 218 217 219 221 222 222 223 226 228 229 230 233 236 239 243 247 252 257 260 264 267 270 274 277 279 283 286 292 303 304 306 306 300 298 300 302 305 310 312 312 312
192 202 209 207 208 208 210 211 215 217 218 221 222 223 223 222 223 226 228 229 230 233 234 235 238 241 245 248 251 255 257 261 265 268 271 274 277 282 284 288 295 302 304 300 299 296 300 301 305 306 309 310 310 310
198 203 209 210 212 219 224 224 223 220 223 223 223 227 228 229 230 231 232 233 234 237 240 241 242 247 248 250 253 256 258 262 265 268 272 276 281 283 285 289 297 301 296 292 295 298 300 303 305 308 307 308 309 310
204 209 212 210 210 214 216 217 221 221 222 227 226 229 230 232 233 236 238 240 242 242 243 246 247 249 252 256 260 263 265 266 267 271 274 278 280 282 287 296 301 293 293 293 296 300 302 303 306 307 308 308 308 308
201 208 212 212 213 217 222 223 222 224 229 232 229 231 234 234 236 238 240 241 244 247 249 252 253 255 258 260 261 264 265 268 271 274 276 279 281 285 292 300 294 295 294 293 297 301 303 305 307 308 308 308 307 308
205 207 214 215 215 218 224 226 226 225 232 229 229 234 238 236 239 241 243 244 245 248 251 253 257 258 257 260 263 266 268 270 272 274 276 279 282 291 293 288 291 296 297 299 300 303 305 306 306 306 305 305 306 307
233 219 215 219 219 220 223 225 224 224 227 232 237 240 241 244 245 244 245 246 246 249 252 255 258 260 262 263 264 267 270 270 272 274 275 279 285 291 287 290 293 295 298 300 302 304 304 303 303 303 302 304 306 308
229 233 235 224 221 221 222 224 227 222 221 227 235 238 241 242 245 246 243 243 245 255 259 260 257 258 262 265 270 270 268 269 271 273 279 284 284 284 289 294 295 296 298 300 303 304 302 301 300 301 304 307 309 311
227 228 231 239 237 227 226 223 222 220 220 229 237 241 246 249 246 243 247 247 249 258 259 263 264 260 264 268 272 272 267 267 270 275 280 282 282 287 289 294 297 297 299 301 301 299 299 300 301 304 306 308 310 311
222 226 228 231 235 238 234 233 226 225 228 231 235 240 237 239 244 245 247 255 259 258 256 260 264 267 270 269 268 263 265 267 270 274 282 286 287 286 290 293 296 296 296 297 297 298 299 300 303 305 307 309 310 313
222 222 228 229 228 231 234 235 234 234 231 229 229 231 236 240 240 243 247 251 255 257 257 260 264 266 269 268 265 267 271 273 276 280 286 290 290 289 288 290 291 293 293 294 296 298 300 302 305 306 307 308 311 314
230 227 228 230 231 230 228 230 231 231 233 232 231 234 237 240 243 244 246 252 256 257 260 262 266 268 269 269 266 267 273 277 282 283 282 281 283 285 286 288 289 289 291 294 297 299 301 303 304 306 307 310 311 313
242 239 236 233 232 232 232 231 231 232 233 233 233 234 240 242 242 243 246 250 252 254 260 264 265 263 266 270 267 268 271 273 276 276 277 279 282 285 285 284 288 292 295 297 299 301 303 303 304 306 308 309 310 312
244 240 238 236 234 233 235 235 235 233 232 235 238 239 240 245 245 246 248 252 254 255 255 256 261 259 264 262 261 262 265 270 272 274 278 280 281 282 286 291 294 296 298 300 300 301 302 303 304 305 307 308 309 310
242 240 237 236 235 235 234 234 235 236 235 234 235 238 240 244 247 248 250 252 254 253 253 252 257 255 256 257 260 265 270 273 275 276 279 283 286 289 293 294 295 297 298 299 300 301 302 303 304 305 306 306 305 305
239 238 235 235 235 235 235 236 235 233 238 238 238 240 242 247 252 255 256 256 258 260 260 262 262 265 266 269 273 276 276 278 282 286 289 291 293 293 293 294 296 297 298 299 300 302 303 304 304 304 303 303 303 302
227 227 228 231 233 232 228 225 230 233 234 240 243 246 248 252 256 262 266 268 267 267 268 268 271 272 275 278 282 285 288 290 291 291 290 291 292 293 294 296 297 297 298 300 302 303 303 303 302 302 304 304 304 305
221 219 215 215 211 221 225 224 229 235 237 238 243 247 251 255 259 263 268 274 282 286 285 288 291 292 293 291 291 292 291 291 290 290 290 291 293 294 293 294 295 297 299 301 302 304 304 302 300 302 302 303 305 308
195 189 195 202 213 225 224 213 224 222 231 231 233 240 250 263 273 276 277 279 280 282 289 292 292 292 289 288 287 285 285 286 287 289 290 290 291 292 295 297 299 300 303 305 306 306 304 301 300 299 299 303 306 309
189 195 197 209 213 213 217 224 232 241 249 255 259 259 257 259 265 272 280 288 292 293 296 295 293 290 288 287 287 287 288 289 289 290 292 294 296 297 298 300 301 303 305 306 306 306 303 300 297 296 297 301 303 304
183 183 184 201 203 211 210 215 221 224 232 244 252 258 262 268 275 283 291 293 296 299 296 293 291 290 288 287 287 288 289 291 292 293 295 295 297 298 299 300 301 302 303 305 304 305 300 295 293 294 297 300 301 305
182 189 199 207 211 215 223 234 250 258 254 255 258 262 268 274 280 286 289 288 291 290 289 288 287 286 287 287 287 288 289 290 292 294 296 296 296 296 296 296 297 297 297 298 298 301 298 291 293 295 296 296 300 306
190 203 204 211 221 229 242 246 235 239 247 253 262 269 271 274 279 282 284 285 285 284 284 284 284 284 284 284 285 286 288 290 292 292 294 295 295 295 295 294 292 289 289 289 292 295 294 289 293 295 298 298 300 305
203 214 221 219 219 223 231 241 252 261 265 267 267 266 269 276 282 285 283 281 281 282 281 282 283 284 284 285 286 288 290 292 294 296 297 297 298 299 300 298 292 286 282 283 286 289 288 285 287 291 295 298 300 303
202 209 211 215 231 246 253 259 261 259 261 263 267 274 280 283 283 282 282 282 283 283 284 284 285 286 287 290 292 292 293 296 298 299 299 299 300 303 306 303 292 281 280 282 283 285 284 283 285 287 292 296 299 302
214 224 238 250 252 250 251 255 260 265 269 273 276 279 281 282 284 284 283 283 284 287 288 289 291 292 294 295 295 295 298 299 299 299 299 300 303 308 310 304 288 282 281 280 282 283 284 285 285 287 289 292 295 298
238 243 247 251 257 261 262 264 267 270 273 276 279 281 282 284 284 285 287 288 289 289 289 290 292 293 294 294 294 295 296 297 297 298 299 301 303 303 305 297 287 283 281 279 281 282 283 284 286 288 289 291 293 295
252 254 258 260 263 266 269 273 275 277 279 280 281 283 286 285 285 286 285 285 287 288 290 291 293 293 292 291 292 294 297 299 299 299 299 299 298 298 297 296 288 283 282 281 279 279 279 279 283 288 291 293 296 299
259 261 264 268 271 274 276 277 279 280 281 281 281 282 284 285 286 287 287 286 287 288 289 291 292 292 293 295 297 298 298 299 298 298 298 297 297 295 292 288 286 284 280 276 274 275 278 281 284 287 292 293 297 301
269 271 272 274 275 276 277 278 279 282 283 283 281 282 284 284 282 283 285 288 290 292 294 295 296 298 298 298 299 299 300 300 299 299 297 296 293 290 288 286 283 279 277 274 273 273 274 278 283 287 290 293 297 300